Schneifelwetter: Wetterstation Hallschlag, 537 m . NN
Wetterdaten: Mittwoch, 13.04.2011
Datum Zeit Temp. A. Feuchte A. Luftdruck Regen Wind Richtung Richtung Sonnenschein Helligkeit T Regen Taupunkt Windchill
13.04.2011 00:10 0,3 C 83 % 1023 hPa 0,0 l/m 10,1 km/h (2 Bft) W 260 0 min 0 lux 0,00 min -2,2 C -3,2 C
13.04.2011 00:25 0,2 C 85 % 1023 hPa 0,0 l/m 8,7 km/h (2 Bft) W-NW 285 0 min 0 lux 0,00 min -2,0 C -2,1 C
13.04.2011 00:40 0,2 C 85 % 1023 hPa 0,0 l/m 8,9 km/h (2 Bft) W 265 0 min 0 lux 0,00 min -2,0 C -2,3 C
13.04.2011 00:56 0,1 C 86 % 1023 hPa 0,0 l/m 10,8 km/h (2 Bft) W 265 0 min 0 lux 0,00 min -2,0 C -4,0 C
13.04.2011 01:11 0,1 C 87 % 1023 hPa 0,0 l/m 11,7 km/h (2 Bft) W 260 0 min 0 lux 0,00 min -1,8 C -4,7 C
13.04.2011 01:26 0,0 C 87 % 1023 hPa 0,0 l/m 9,9 km/h (2 Bft) W-SW 250 0 min 0 lux 0,00 min -1,9 C -3,4 C
13.04.2011 01:41 -0,2 C 88 % 1023 hPa 0,0 l/m 12,0 km/h (2 Bft) W 260 0 min 0 lux 0,00 min -1,9 C -5,2 C
13.04.2011 01:56 0,0 C 88 % 1023 hPa 0,0 l/m 13,2 km/h (3 Bft) W 260 0 min 0 lux 0,00 min -1,7 C -5,8 C
13.04.2011 02:11 -0,2 C 88 % 1023 hPa 0,0 l/m 11,3 km/h (2 Bft) W-SW 250 0 min 0 lux 0,00 min -1,9 C -4,7 C
13.04.2011 02:26 -0,4 C 88 % 1023 hPa 0,0 l/m 12,4 km/h (3 Bft) W 260 0 min 0 lux 0,00 min -2,1 C -5,8 C
13.04.2011 02:41 -0,4 C 89 % 1022 hPa 0,0 l/m 10,5 km/h (2 Bft) W 260 0 min 0 lux 0,00 min -2,0 C -4,3 C
13.04.2011 02:56 -0,6 C 89 % 1022 hPa 0,0 l/m 15,0 km/h (3 Bft) W22.5 260 0 min 0 lux 0,00 min -2,2 C -7,7 C
13.04.2011 03:11 -0,4 C 90 % 1022 hPa 0,0 l/m 12,8 km/h (3 Bft) W 260 0 min 0 lux 0,00 min -1,8 C -6,0 C
13.04.2011 03:26 -0,4 C 90 % 1022 hPa 0,0 l/m 16,7 km/h (3 Bft) W22.5 275 0 min 0 lux 0,00 min -1,8 C -8,5 C
13.04.2011 03:41 -0,5 C 90 % 1021 hPa 0,0 l/m 9,0 km/h (2 Bft) W-SW 255 0 min 0 lux 0,00 min -1,9 C -3,1 C
13.04.2011 03:56 -0,6 C 90 % 1021 hPa 0,0 l/m 13,5 km/h (3 Bft) W22.5 270 0 min 0 lux 0,00 min -2,0 C -6,7 C
13.04.2011 04:11 -0,8 C 90 % 1021 hPa 0,0 l/m 17,8 km/h (3 Bft) W22.5 275 0 min 0 lux 0,00 min -2,2 C -9,6 C
13.04.2011 04:26 -0,7 C 90 % 1022 hPa 0,0 l/m 15,0 km/h (3 Bft) W22.5 265 0 min 0 lux 0,00 min -2,1 C -7,8 C
13.04.2011 04:41 -0,7 C 90 % 1022 hPa 0,0 l/m 12,3 km/h (3 Bft) W22.5 270 0 min 0 lux 0,00 min -2,1 C -6,0 C
13.04.2011 04:56 -0,8 C 90 % 1022 hPa 0,0 l/m 13,1 km/h (3 Bft) W22.5 265 0 min 0 lux 0,00 min -2,2 C -6,7 C
13.04.2011 05:11 -0,9 C 90 % 1021 hPa 0,0 l/m 13,5 km/h (3 Bft) W22.5 275 0 min 0 lux 0,00 min -2,3 C -7,1 C
13.04.2011 05:26 -1,0 C 90 % 1021 hPa 0,0 l/m 8,3 km/h (2 Bft) W-SW 255 0 min 0 lux 0,00 min -2,4 C -3,0 C
13.04.2011 05:41 -1,3 C 90 % 1021 hPa 0,0 l/m 9,1 km/h (2 Bft) W 260 0 min 0 lux 0,00 min -2,7 C -4,1 C
13.04.2011 05:56 -1,4 C 91 % 1021 hPa 0,0 l/m 9,2 km/h (2 Bft) W 260 0 min 0 lux 0,00 min -2,7 C -4,3 C
13.04.2011 06:11 -1,6 C 91 % 1021 hPa 0,0 l/m 7,2 km/h (2 Bft) W 260 0 min 0 lux 0,00 min -2,9 C -2,5 C
13.04.2011 06:26 -1,7 C 91 % 1021 hPa 0,0 l/m 8,6 km/h (2 Bft) W 260 0 min 65 lux 0,00 min -3,0 C -4,0 C
13.04.2011 06:41 -1,7 C 92 % 1021 hPa 0,0 l/m 11,3 km/h (2 Bft) W 260 0 min 434 lux 0,00 min -2,8 C -6,4 C
13.04.2011 06:56 -1,4 C 92 % 1021 hPa 0,0 l/m 8,9 km/h (2 Bft) W 260 0 min 1,32 klux 0,00 min -2,5 C -4,0 C
13.04.2011 07:11 -1,3 C 93 % 1021 hPa 0,0 l/m 8,8 km/h (2 Bft) W 260 0 min 3,44 klux 0,00 min -2,3 C -3,8 C
13.04.2011 07:26 -1,0 C 93 % 1021 hPa 0,0 l/m 8,3 km/h (2 Bft) W 260 0 min 8,15 klux 0,00 min -2,0 C -3,0 C
13.04.2011 07:41 -0,8 C 93 % 1021 hPa 0,0 l/m 8,3 km/h (2 Bft) W 260 0 min 10,8 klux 0,00 min -1,8 C -2,8 C
13.04.2011 08:02 -0,4 C 93 % 1021 hPa 0,0 l/m 11,0 km/h (2 Bft) W 260 0 min 17,0 klux 0,00 min -1,4 C -4,7 C
13.04.2011 08:17 0,3 C 93 % 1021 hPa 0,0 l/m 11,0 km/h (2 Bft) W 260 0 min 20,8 klux 0,00 min -0,7 C -3,9 C
13.04.2011 08:32 1,1 C 93 % 1021 hPa 0,0 l/m 11,0 km/h (2 Bft) W-SW 255 0 min 27,8 klux 0,00 min 0,1 C -3,0 C
13.04.2011 08:47 2,1 C 92 % 1021 hPa 0,0 l/m 16,5 km/h (3 Bft) W22.5 270 0 min 32,1 klux 0,00 min 0,9 C -5,3 C
13.04.2011 09:02 3,0 C 90 % 1021 hPa 0,0 l/m 19,1 km/h (3 Bft) W22.5 280 0 min 35,0 klux 0,00 min 1,5 C -5,4 C
13.04.2011 09:17 3,8 C 87 % 1021 hPa 0,0 l/m 18,0 km/h (3 Bft) W22.5 270 0 min 39,8 klux 0,00 min 1,8 C -3,9 C
13.04.2011 09:32 4,7 C 82 % 1021 hPa 0,0 l/m 18,6 km/h (3 Bft) W22.5 275 0 min 44,3 klux 0,00 min 1,9 C -3,0 C
13.04.2011 09:47 5,6 C 79 % 1021 hPa 0,0 l/m 21,2 km/h (4 Bft) W45 260 0 min 46,9 klux 0,00 min 2,3 C -2,8 C
13.04.2011 10:02 6,6 C 76 % 1021 hPa 0,0 l/m 17,2 km/h (3 Bft) W-NW45 290 0 min 50,8 klux 0,00 min 2,7 C 0,0 C
13.04.2011 10:17 7,4 C 69 % 1021 hPa 0,0 l/m 18,5 km/h (3 Bft) W-NW67.5 285 15 min 55,7 klux 0,00 min 2,1 C 0,5 C
13.04.2011 10:32 7,8 C 66 % 1021 hPa 0,0 l/m 25,5 km/h (4 Bft) W45 275 15 min 63,8 klux 0,00 min 1,9 C -1,3 C
13.04.2011 10:47 7,7 C 67 % 1021 hPa 0,0 l/m 21,1 km/h (4 Bft) W22.5 265 15 min 67,4 klux 0,00 min 2,0 C -0,1 C
13.04.2011 11:02 7,6 C 66 % 1021 hPa 0,0 l/m 30,7 km/h (5 Bft) W45 275 15 min 75,3 klux 0,00 min 1,7 C -2,9 C
13.04.2011 11:17 7,6 C 57 % 1021 hPa 0,0 l/m 29,4 km/h (5 Bft) NW67.5 315 15 min 75,6 klux 0,00 min -0,4 C -2,6 C
13.04.2011 11:31 8,0 C 58 % 1021 hPa 0,0 l/m 26,4 km/h (4 Bft) W45 280 14 min 83,3 klux 0,00 min 0,3 C -1,3 C
13.04.2011 11:47 8,8 C 57 % 1021 hPa 0,0 l/m 33,7 km/h (5 Bft) W45 265 16 min 83,6 klux 0,00 min 0,8 C -1,8 C
13.04.2011 12:02 9,6 C 57 % 1021 hPa 0,0 l/m 28,8 km/h (4 Bft) W22.5 265 15 min 84,2 klux 0,00 min 1,5 C 0,4 C
13.04.2011 12:17 9,3 C 57 % 1021 hPa 0,0 l/m 29,7 km/h (5 Bft) W45 275 15 min 85,4 klux 0,00 min 1,2 C -0,3 C
13.04.2011 12:32 9,8 C 53 % 1021 hPa 0,0 l/m 26,7 km/h (4 Bft) W22.5 275 15 min 92,2 klux 0,00 min 0,7 C 1,1 C
13.04.2011 12:47 8,8 C 51 % 1021 hPa 0,0 l/m 26,0 km/h (4 Bft) W22.5 270 0 min 33,3 klux 0,00 min -0,8 C -0,1 C
13.04.2011 13:02 8,6 C 56 % 1021 hPa 0,0 l/m 23,1 km/h (4 Bft) W45 275 15 min 87,0 klux 0,00 min 0,3 C 0,5 C
13.04.2011 13:17 10,0 C 51 % 1020 hPa 0,0 l/m 27,0 km/h (4 Bft) W22.5 265 15 min 91,7 klux 0,00 min 0,3 C 1,3 C
13.04.2011 13:32 9,2 C 54 % 1020 hPa 0,0 l/m 24,4 km/h (4 Bft) W-NW45 295 15 min 87,9 klux 0,00 min 0,4 C 0,9 C
13.04.2011 13:47 9,4 C 53 % 1020 hPa 0,0 l/m 31,2 km/h (5 Bft) W45 275 15 min 67,5 klux 0,00 min 0,3 C -0,4 C
13.04.2011 14:02 9,3 C 51 % 1020 hPa 0,0 l/m 22,5 km/h (4 Bft) W-NW45 290 15 min 75,8 klux 0,00 min -0,3 C 1,6 C
13.04.2011 14:17 9,6 C 50 % 1020 hPa 0,0 l/m 25,8 km/h (4 Bft) W-NW45 295 15 min 81,1 klux 0,00 min -0,3 C 1,1 C
13.04.2011 14:32 10,4 C 50 % 1020 hPa 0,0 l/m 24,3 km/h (4 Bft) W45 270 15 min 81,8 klux 0,00 min 0,4 C 2,6 C
13.04.2011 14:47 9,8 C 48 % 1020 hPa 0,0 l/m 20,5 km/h (4 Bft) W45 275 15 min 63,6 klux 0,00 min -0,7 C 2,9 C
13.04.2011 15:02 10,2 C 50 % 1019 hPa 0,0 l/m 33,5 km/h (5 Bft) W22.5 265 15 min 84,9 klux 0,00 min 0,3 C 0,2 C
13.04.2011 15:17 10,5 C 52 % 1019 hPa 0,0 l/m 30,6 km/h (5 Bft) W22.5 265 15 min 81,8 klux 0,00 min 1,1 C 1,2 C
13.04.2011 15:32 11,0 C 48 % 1019 hPa 0,0 l/m 29,5 km/h (5 Bft) W45 270 15 min 80,5 klux 0,00 min 0,4 C 2,2 C
13.04.2011 15:47 10,5 C 47 % 1019 hPa 0,0 l/m 26,8 km/h (4 Bft) W45 270 0 min 51,9 klux 0,00 min -0,3 C 2,1 C
13.04.2011 16:02 9,9 C 50 % 1019 hPa 0,0 l/m 28,6 km/h (4 Bft) W22.5 270 15 min 69,0 klux 0,00 min -0,0 C 0,8 C
13.04.2011 16:17 9,8 C 50 % 1019 hPa 0,0 l/m 34,2 km/h (5 Bft) W22.5 270 15 min 63,9 klux 0,00 min -0,1 C -0,5 C
13.04.2011 16:31 9,7 C 47 % 1019 hPa 0,0 l/m 30,6 km/h (5 Bft) W45 265 0 min 39,7 klux 0,00 min -1,1 C 0,1 C
13.04.2011 16:47 9,4 C 48 % 1019 hPa 0,0 l/m 30,8 km/h (5 Bft) W22.5 280 0 min 29,5 klux 0,00 min -1,0 C -0,4 C
13.04.2011 17:02 9,7 C 49 % 1019 hPa 0,0 l/m 17,1 km/h (3 Bft) N-NW67.5 335 0 min 35,6 klux 0,00 min -0,5 C 3,9 C
13.04.2011 17:17 10,0 C 47 % 1019 hPa 0,0 l/m 22,5 km/h (4 Bft) W22.5 270 0 min 51,5 klux 0,00 min -0,8 C 2,5 C
13.04.2011 17:32 10,0 C 46 % 1019 hPa 0,0 l/m 18,9 km/h (3 Bft) W22.5 270 0 min 35,9 klux 0,00 min -1,1 C 3,7 C
13.04.2011 17:47 9,4 C 47 % 1018 hPa 0,0 l/m 21,8 km/h (4 Bft) W45 270 0 min 20,8 klux 0,00 min -1,3 C 1,9 C
13.04.2011 18:02 8,8 C 51 % 1019 hPa 0,0 l/m 14,1 km/h (3 Bft) W22.5 280 0 min 12,2 klux 0,00 min -0,8 C 4,1 C
13.04.2011 18:17 8,8 C 52 % 1018 hPa 0,0 l/m 22,5 km/h (4 Bft) W22.5 270 0 min 30,8 klux 0,00 min -0,5 C 0,9 C
13.04.2011 18:32 9,4 C 51 % 1018 hPa 0,0 l/m 26,3 km/h (4 Bft) W22.5 280 0 min 32,9 klux 0,00 min -0,2 C 0,7 C
13.04.2011 18:47 9,3 C 47 % 1018 hPa 0,0 l/m 19,7 km/h (3 Bft) W22.5 265 0 min 22,4 klux 0,00 min -1,4 C 2,5 C
13.04.2011 19:02 8,8 C 47 % 1018 hPa 0,0 l/m 32,2 km/h (5 Bft) W22.5 270 0 min 20,4 klux 0,00 min -1,9 C -1,5 C
13.04.2011 19:17 8,6 C 51 % 1018 hPa 0,0 l/m 24,0 km/h (4 Bft) W 260 0 min 13,1 klux 0,00 min -1,0 C 0,2 C
13.04.2011 19:32 8,2 C 53 % 1018 hPa 0,0 l/m 15,6 km/h (3 Bft) W22.5 270 0 min 9,3 klux 0,00 min -0,8 C 2,7 C
13.04.2011 19:47 7,9 C 54 % 1018 hPa 0,0 l/m 20,0 km/h (4 Bft) W 260 0 min 6,93 klux 0,00 min -0,8 C 0,6 C
13.04.2011 20:02 7,4 C 55 % 1018 hPa 0,0 l/m 20,8 km/h (4 Bft) W 265 0 min 3,36 klux 0,00 min -1,0 C -0,4 C
13.04.2011 20:17 6,9 C 57 % 1018 hPa 0,0 l/m 15,5 km/h (3 Bft) W 260 0 min 1,86 klux 0,00 min -1,0 C 1,1 C
13.04.2011 20:32 6,4 C 59 % 1018 hPa 0,0 l/m 10,1 km/h (2 Bft) W 260 0 min 604 lux 0,00 min -1,0 C 3,6 C
13.04.2011 20:47 6,0 C 60 % 1018 hPa 0,0 l/m 7,4 km/h (2 Bft) W 265 0 min 90 lux 0,00 min -1,2 C 5,1 C
13.04.2011 21:02 5,6 C 60 % 1018 hPa 0,0 l/m 2,7 km/h (1 Bft) W 265 0 min 19 lux 0,00 min -1,5 C 5,6 C
13.04.2011 21:17 5,1 C 61 % 1018 hPa 0,0 l/m 0,3 km/h (0 Bft) W 260 0 min 1 lux 0,00 min -1,8 C 5,1 C
13.04.2011 21:32 4,6 C 63 % 1018 hPa 0,0 l/m 0,0 km/h (0 Bft) W 260 0 min 0 lux 0,00 min -1,8 C 4,6 C
13.04.2011 21:47 4,1 C 64 % 1018 hPa 0,0 l/m 0,0 km/h (0 Bft) W 265 0 min 0 lux 0,00 min -2,1 C 4,1 C
13.04.2011 22:02 3,7 C 66 % 1018 hPa 0,0 l/m 0,0 km/h (0 Bft) W 265 0 min 0 lux 0,00 min -2,0 C 3,7 C
13.04.2011 22:17 3,4 C 68 % 1018 hPa 0,0 l/m 0,0 km/h (0 Bft) W 265 0 min 0 lux 0,00 min -1,9 C 3,4 C
13.04.2011 22:32 3,2 C 69 % 1018 hPa 0,0 l/m 0,0 km/h (0 Bft) W 265 0 min 0 lux 0,00 min -1,9 C 3,2 C
13.04.2011 22:47 3,0 C 70 % 1018 hPa 0,0 l/m 0,0 km/h (0 Bft) W 265 0 min 0 lux 0,00 min -1,9 C 3,0 C
13.04.2011 23:02 2,9 C 71 % 1018 hPa 0,0 l/m 0,0 km/h (0 Bft) W 265 0 min 0 lux 0,00 min -1,8 C 2,9 C
13.04.2011 23:17 2,7 C 72 % 1018 hPa 0,0 l/m 0,0 km/h (0 Bft) W 265 0 min 0 lux 0,00 min -1,8 C 2,7 C
13.04.2011 23:32 2,7 C 74 % 1018 hPa 0,0 l/m 0,0 km/h (0 Bft) W 265 0 min 0 lux 0,00 min -1,5 C 2,7 C
13.04.2011 23:47 2,9 C 75 % 1018 hPa 0,0 l/m 3,4 km/h (1 Bft) W 260 0 min 0 lux 0,00 min -1,1 C 2,9 C
_ Min-Zeit 06:26 17:32 17:47 - 21:32 - - - - - 06:26 04:11
Minimum _ -1,7 C 46 % 1018 hPa - 0,0 km/h (0 Bft) - - - - - -3,0 C -9,6 C
_ Max-Zeit 15:32 07:11 00:10 00:10 16:17 - - 11:47 12:32 00:10 10:02 21:02
Maximum _ 11,0 C 93 % 1023 hPa 0,0 l/m 34,2 km/h
W (5 Bft)
- - 16 min 92,2 klux 0,00 min 2,7 C 5,6 C
Durchschnitt _ 4,6 C 70 % 1020 hPa #0,0 l/m 16,3 km/h (3 Bft) W - #5:45 h 27,1 klux #0 min. -0,9 C -1,1 C